Regional Weather Roundup
Issued by NWS

Home | Current Version | Previous Version | Text Only | Print | Product List | Glossary Off
Versions: 1 2 3 4 5 6 7 8 9 10 11 12 13 14 15 16 17 18 19 20 21 22 23 24 25 26 27 28 29 30 31 32 33 34 35 36 37 38 39 40 41 42 43 44 45 46 47 48 49 50

000
ASUS43 KLOT 281010
RWRIL

ILLINOIS REGIONAL WEATHER ROUNDUP
NATIONAL WEATHER SERVICE CHICAGO/ROMEOVILLE IL
400 AM CST SUN DEC 28 2014

NOTE: "FAIR" INDICATES FEW OR NO CLOUDS BELOW 12,000 FEET WITH NO
SIGNIFICANT WEATHER AND/OR OBSTRUCTIONS TO VISIBILITY.

* THESE STATIONS ARE NOT UNDER NWS QUALITY CONTROL. THEY ALSO MAY NOT
  REPORT WEATHER SUCH AS PRECIPITATION OR FOG.

ILZ001-002-007-009-015-016-024-281100-
NORTHWEST ILLINOIS

CITY           SKY/WX    TMP DP  RH WIND       PRES   REMARKS
MOLINE         CLEAR     20  16  84 W8        30.20S WCI  10
STERLING*      CLEAR     19  12  73 NW10      30.17S WCI   8
SAVANNA*       CLEAR     21  16  81 W5        30.18S WCI  14
$$

ILZ003-004-008-010-011-017-018-281100-
NORTH CENTRAL ILLINOIS

CITY           SKY/WX    TMP DP  RH WIND       PRES   REMARKS
ROCKFORD       CLEAR     21  16  81 W7        30.16S WCI  12
FREEPORT*      CLEAR     20  15  82 W8        30.16S WCI  10
ROCHELLE*      PTCLDY    22  19  88 W7        30.16R WCI  13
DE KALB*       MOCLDY    22  19  87 NW12      30.14R WCI  11
PERU*          CLOUDY    23  19  85 W8        30.19R WCI  14
$$

ILZ005-006-012>014-019>023-281100-
NORTHEAST ILLINOIS

CITY           SKY/WX    TMP DP  RH WIND       PRES   REMARKS
CHICAGO-OHARE  CLEAR     25  19  78 W10       30.12R WCI  15
CHICAGO-MIDWAY CLOUDY    30  22  72 W9        30.12S WCI  22
AURORA         CLOUDY    26  19  74 NW14      30.14S WCI  14
LANSING*       CLOUDY    30  24  80 W8        30.13S WCI  22
JOLIET*        CLOUDY    27  20  77 NW6       30.15S WCI  20
WAUKEGAN       CLEAR     26  19  74 W6        30.10R WCI  19
DUPAGE AIRPORT CLOUDY    26  20  77 NW8       30.12R WCI  18
KANKAKEE*      CLOUDY    28  24  82 W10       30.16R WCI  19
WHEELING       MOCLDY    25  19  78 W6        30.14R WCI  18
MORRIS*        CLOUDY    26  22  86 W10       30.16R WCI  16
ROMEOVILLE*    CLOUDY    27  22  82 W9        30.14S WCI  17
NORTHERLY ISL    N/A     29  22  75 W3          N/A
$$

LMZ740>746-281100-
SOUTHERN LAKE MICHIGAN

STATION/POSITION SKY/WX   TEMP    WIND        PRES    VSBY  WAVE
                          AIR SEA DIR/SP/G                  HT/PER
                          (F)     (DEG/KT/KT) (MB)    (MI)  (FT/S)
WAUKEGAN HARBOR            27     290/  6/ 12   N/A
HARRISON CRIB              29     300/ 13/ 16   N/A
BURNHAM HARBOR             29     310/  6/ 12   N/A
CALUMET HARBOR             31     240/  4/  8 1018.6F
MICHIGAN CITY              32     270/ 12/ 16   N/A
$$

ILZ025>027-034>036-040-047-049-050-058-095>099-281100-
WEST-CENTRAL ILLINOIS

CITY           SKY/WX    TMP DP  RH WIND       PRES   REMARKS
QUINCY         CLOUDY    27  21  78 NW7       30.22R WCI  19
GALESBURG*     CLEAR     21  19  90 W6        30.20S WCI  13
MACOMB*        CLOUDY    28  23  83 W10       30.23S WCI  18
JACKSONVILLE*  CLOUDY    31  25  77 NW6       30.22R WCI  25
PITTSFIELD*    CLOUDY    30  24  78 W7        30.23S WCI  23
$$

ILZ028>032-037-038-041>044-048-051>054-059>061-281100-
CENTRAL ILLINOIS

CITY           SKY/WX    TMP DP  RH WIND       PRES   REMARKS
PONTIAC        PTCLDY    26  22  84 W13       30.18R WCI  15
BLOOMINGTON    MOCLDY    26  22  85 W10       30.19R WCI  16
DECATUR        CLOUDY    29  24  82 NW12      30.19F WCI  19
PEORIA         FAIR      26  18  71 NW6       30.20S WCI  19
LACON*         PTCLDY    22  15  75 W6        30.20R WCI  15
LINCOLN*       CLOUDY    29  24  80 NW3       30.22R
SPRINGFIELD    CLOUDY    30  23  75 W8        30.22R WCI  22
TAYLORVILLE    CLOUDY    30  27  86 W6        30.21S WCI  24
$$

ILZ033-039-045-046-055>057-062-063-281100-
EAST-CENTRAL ILLINOIS

CITY           SKY/WX    TMP DP  RH WIND       PRES   REMARKS
CHAMPAIGN      CLOUDY    30  25  81 W12       30.17S WCI  20
DANVILLE*      CLOUDY    29  27  90 W9        30.14R WCI  21
RANTOUL*       CLOUDY    29  25  84 NW9       30.17R WCI  21
MATTOON        CLOUDY    30  26  85 NW13      30.18R WCI  20
PARIS*         CLOUDY    31  28  89 NW9       30.18R WCI  23
$$

ILZ079-100>102-281100-
SOUTHWEST ILLINOIS

CITY           SKY/WX    TMP DP  RH WIND       PRES   REMARKS
ALTON          CLOUDY    32  26  79 NW5       30.23S WCI  27
BELLEVILLE     CLOUDY    33  28  82 NW6       30.22R WCI  27
CAHOKIA*       CLOUDY    33  27  78 N6        30.23R WCI  28
SPARTA*        CLOUDY    32  28  85 NW3       30.22F
$$

ILZ064>066-069>071-074>076-080>082-084>086-088>090-092>094-281100-
SOUTH-CENTRAL ILLINOIS

CITY           SKY/WX    TMP DP  RH WIND       PRES   REMARKS
CARBONDALE     CLOUDY    34  29  82 N14       30.20S WCI  25
CAIRO*         CLOUDY    39  36  86 N8        30.20R WCI  34
EFFINGHAM*     CLOUDY    32  25  75 NW7       30.22R WCI  26
MARION         CLOUDY    36  30  80 N7        30.20S WCI  30
MT. VERNON     CLOUDY    34  25  69 N3        30.21S
CENTRALIA*     CLOUDY    32  27  82 NW8       30.21S WCI  25
SALEM*         CLOUDY    34  28  81 N10       30.21S WCI  26
METROPOLIS*    CLOUDY    37  37 100 N7        30.18R WCI  32
$$

ILZ067-068-072-073-078-083-087-091-281100-
SOUTHEAST ILLINOIS

CITY           SKY/WX    TMP DP  RH WIND       PRES   REMARKS
LAWRENCEVILLE  CLOUDY    34  29  82 N7        30.20R WCI  28
FLORA*         PTCLDY    32  28  84 N13G18    30.21S WCI  22
FAIRFIELD*     CLOUDY    33  30  87 CALM      30.19S
HARRISBURG*    CLOUDY    36  33  90 N8        30.20S WCI  29
ROBINSON*      CLOUDY    32  30  91 CALM      30.20R
CARMI*         CLOUDY    37  35  94 NW8       30.18S WCI  31
$$

ABBREVIATIONS USED IN REMARKS
   TC - TEMPERATURE IN CELSIUS
  WCI - WIND CHILL INDEX
   HX - HEAT INDEX
  VSB - VISIBILITY
$$



USA.gov is the U.S. government's official web portal to all federal, state and local government web resources and services.